Météo par heure à Almansa

Ce jour, 15 Mai, Samedi

Heure Température Précipitation Vent Pression Humidité
00:00 +15°C° 0 mm 2 m/s 703 mmHg 53%
01:00 +15°C° 0 mm 2 m/s 703 mmHg 56%
02:00 +14°C° 0 mm 3 m/s 702 mmHg 59%
03:00 +14°C° 0 mm 3 m/s 702 mmHg 62%
04:00 +14°C° 0 mm 3 m/s 702 mmHg 59%
05:00 +15°C° 0 mm 2 m/s 702 mmHg 56%
06:00 +16°C° 0 mm 2 m/s 702 mmHg 52%
07:00 +18°C° 0 mm 3 m/s 703 mmHg 45%
08:00 +20°C° 0 mm 4 m/s 703 mmHg 38%
09:00 +22°C° 0 mm 5 m/s 703 mmHg 31%
10:00 +24°C° 0 mm 6 m/s 703 mmHg 28%
11:00 +26°C° 0 mm 6 m/s 703 mmHg 25%
12:00 +28°C° 0 mm 7 m/s 703 mmHg 22%
13:00 +29°C° 0 mm 7 m/s 703 mmHg 21%
14:00 +29°C° 0 mm 7 m/s 703 mmHg 20%
15:00 +30°C° 0 mm 7 m/s 702 mmHg 20%
16:00 +29°C° 0 mm 6 m/s 702 mmHg 23%
17:00 +28°C° 0 mm 6 m/s 702 mmHg 26%
18:00 +27°C° 0 mm 6 m/s 702 mmHg 29%
19:00 +26°C° 0 mm 5 m/s 702 mmHg 34%
20:00 +23°C° 0 mm 4 m/s 702 mmHg 39%
21:00 +21°C° 0 mm 3 m/s 702 mmHg 44%
22:00 +21°C° 0 mm 3 m/s 702 mmHg 47%
23:00 +20°C° 0 mm 3 m/s 702 mmHg 49%

Demain, 16 Mai, Dimanche

Heure Température Précipitation Vent Pression Humidité
00:00 +19°C° 0 mm 3 m/s 702 mmHg 52%
01:00 +19°C° 0 mm 3 m/s 702 mmHg 54%
02:00 +18°C° 0 mm 3 m/s 701 mmHg 57%
03:00 +17°C° 0 mm 3 m/s 701 mmHg 60%
04:00 +18°C° 0 mm 3 m/s 701 mmHg 61%
05:00 +18°C° 0 mm 3 m/s 701 mmHg 62%
06:00 +18°C° 0 mm 3 m/s 701 mmHg 63%
07:00 +20°C° 0 mm 4 m/s 702 mmHg 54%
08:00 +22°C° 0 mm 6 m/s 702 mmHg 46%
09:00 +24°C° 0 mm 7 m/s 702 mmHg 38%
10:00 +27°C° 0 mm 7 m/s 702 mmHg 32%
11:00 +29°C° 0 mm 7 m/s 702 mmHg 27%
12:00 +31°C° 0 mm 8 m/s 702 mmHg 21%
13:00 +32°C° 0 mm 8 m/s 702 mmHg 20%
14:00 +32°C° 0 mm 8 m/s 701 mmHg 19%
15:00 +33°C° 0 mm 8 m/s 701 mmHg 17%
16:00 +32°C° 0 mm 7 m/s 701 mmHg 20%
17:00 +30°C° 0 mm 7 m/s 701 mmHg 23%
18:00 +29°C° 0 mm 6 m/s 701 mmHg 25%
19:00 +27°C° 0 mm 5 m/s 701 mmHg 32%
20:00 +25°C° 0 mm 4 m/s 701 mmHg 39%
21:00 +24°C° 0 mm 2 m/s 702 mmHg 45%
22:00 +23°C° 0 mm 2 m/s 701 mmHg 48%
23:00 +21°C° 0 mm 2 m/s 701 mmHg 51%

Après-demain, 17 Mai, Lundi

Heure Température Précipitation Vent Pression Humidité
00:00 +20°C° 0 mm 2 m/s 701 mmHg 54%
01:00 +19°C° 0 mm 2 m/s 701 mmHg 60%
02:00 +18°C° 0 mm 2 m/s 701 mmHg 66%
03:00 +17°C° 0 mm 2 m/s 701 mmHg 72%
04:00 +17°C° 0 mm 2 m/s 701 mmHg 75%
05:00 +16°C° 0 mm 2 m/s 702 mmHg 79%
06:00 +16°C° 0 mm 2 m/s 702 mmHg 83%
07:00 +17°C° 0 mm 3 m/s 702 mmHg 76%
08:00 +19°C° 0 mm 3 m/s 703 mmHg 69%
09:00 +20°C° 0 mm 3 m/s 703 mmHg 62%
10:00 +22°C° 0 mm 3 m/s 703 mmHg 53%
11:00 +25°C° 0 mm 3 m/s 703 mmHg 45%
12:00 +27°C° 0 mm 3 m/s 703 mmHg 37%
13:00 +27°C° 0 mm 3 m/s 703 mmHg 37%
14:00 +28°C° 0 mm 4 m/s 703 mmHg 36%
15:00 +28°C° 0 mm 5 m/s 703 mmHg 36%
16:00 +26°C° 0 mm 4 m/s 703 mmHg 45%
17:00 +23°C° 0 mm 4 m/s 703 mmHg 55%
18:00 +21°C° 0 mm 3 m/s 703 mmHg 64%
19:00 +19°C° 0 mm 3 m/s 704 mmHg 69%
20:00 +18°C° 0 mm 2 m/s 704 mmHg 75%
21:00 +17°C° 0 mm 2 m/s 704 mmHg 80%
22:00 +17°C° 0 mm 2 m/s 704 mmHg 81%
23:00 +16°C° 0 mm 2 m/s 704 mmHg 82%

18 Mai, Mardi

Heure Température Précipitation Vent Pression Humidité
00:00 +16°C° 0 mm 1 m/s 704 mmHg 83%
01:00 +15°C° 0 mm 1 m/s 704 mmHg 84%
02:00 +15°C° 0 mm 1 m/s 704 mmHg 85%
03:00 +15°C° 0 mm 1 m/s 704 mmHg 86%
04:00 +15°C° 0 mm 1 m/s 705 mmHg 85%
05:00 +15°C° 0 mm 1 m/s 705 mmHg 85%
06:00 +15°C° 0 mm 1 m/s 706 mmHg 84%
07:00 +16°C° 0 mm 1 m/s 706 mmHg 78%
08:00 +18°C° 0 mm 1 m/s 706 mmHg 72%
09:00 +18°C° 0 mm 2 m/s 707 mmHg 66%
10:00 +19°C° 0 mm 2 m/s 707 mmHg 61%
11:00 +21°C° 0 mm 2 m/s 707 mmHg 56%
12:00 +22°C° 0 mm 3 m/s 707 mmHg 51%
13:00 +22°C° 0 mm 3 m/s 707 mmHg 51%
14:00 +23°C° 0 mm 4 m/s 706 mmHg 51%
15:00 +23°C° 0 mm 5 m/s 706 mmHg 51%
16:00 +22°C° 0 mm 4 m/s 706 mmHg 56%
17:00 +20°C° 0 mm 4 m/s 707 mmHg 61%
18:00 +19°C° 0 mm 4 m/s 707 mmHg 66%
19:00 +18°C° 0 mm 3 m/s 707 mmHg 71%
20:00 +17°C° 0 mm 3 m/s 707 mmHg 76%
21:00 +16°C° 0 mm 2 m/s 708 mmHg 81%
22:00 +15°C° 0 mm 2 m/s 708 mmHg 83%
23:00 +15°C° 0 mm 2 m/s 708 mmHg 85%

19 Mai, Mercredi

Heure Température Précipitation Vent Pression Humidité
00:00 +14°C° 0 mm 2 m/s 708 mmHg 88%
01:00 +14°C° 0 mm 2 m/s 707 mmHg 89%
02:00 +14°C° 0 mm 2 m/s 707 mmHg 89%
03:00 +13°C° 0 mm 2 m/s 707 mmHg 90%
04:00 +14°C° 0 mm 2 m/s 707 mmHg 88%
05:00 +14°C° 0 mm 2 m/s 708 mmHg 87%
06:00 +14°C° 0 mm 2 m/s 708 mmHg 86%
07:00 +15°C° 0 mm 2 m/s 708 mmHg 79%
08:00 +16°C° 0 mm 2 m/s 708 mmHg 72%
09:00 +18°C° 0 mm 3 m/s 708 mmHg 65%
10:00 +19°C° 0 mm 3 m/s 708 mmHg 60%
11:00 +21°C° 0 mm 3 m/s 708 mmHg 54%
12:00 +22°C° 0 mm 4 m/s 708 mmHg 49%
13:00 +23°C° 0 mm 4 m/s 708 mmHg 47%
14:00 +23°C° 0 mm 4 m/s 708 mmHg 46%
15:00 +25°C° 0 mm 4 m/s 707 mmHg 44%
16:00 +23°C° 0 mm 4 m/s 707 mmHg 47%
17:00 +23°C° 0 mm 4 m/s 707 mmHg 50%
18:00 +22°C° 0 mm 4 m/s 707 mmHg 52%
19:00 +20°C° 0 mm 3 m/s 707 mmHg 58%
20:00 +19°C° 0 mm 3 m/s 707 mmHg 64%
21:00 +18°C° 0 mm 2 m/s 708 mmHg 70%
22:00 +17°C° 0 mm 2 m/s 707 mmHg 73%
23:00 +16°C° 0 mm 2 m/s 707 mmHg 77%

20 Mai, Jeudi

Heure Température Précipitation Vent Pression Humidité
00:00 +15°C° 0 mm 1 m/s 707 mmHg 80%
01:00 +15°C° 0 mm 1 m/s 707 mmHg 81%
02:00 +15°C° 0 mm 1 m/s 706 mmHg 82%
03:00 +14°C° 0 mm 1 m/s 706 mmHg 83%
04:00 +15°C° 0 mm 1 m/s 706 mmHg 79%
05:00 +15°C° 0 mm 1 m/s 706 mmHg 75%
06:00 +16°C° 0 mm 1 m/s 707 mmHg 71%
07:00 +19°C° 0 mm 1 m/s 707 mmHg 63%
08:00 +20°C° 0 mm 2 m/s 707 mmHg 54%
09:00 +21°C° 0 mm 2 m/s 707 mmHg 46%
10:00 +24°C° 0 mm 3 m/s 707 mmHg 42%
11:00 +26°C° 0 mm 3 m/s 707 mmHg 38%
12:00 +27°C° 0 mm 3 m/s 707 mmHg 34%
13:00 +28°C° 0 mm 3 m/s 707 mmHg 32%
14:00 +28°C° 0 mm 3 m/s 706 mmHg 31%
15:00 +29°C° 0 mm 3 m/s 706 mmHg 29%
16:00 +28°C° 0 mm 3 m/s 706 mmHg 32%
17:00 +27°C° 0 mm 4 m/s 706 mmHg 36%
18:00 +26°C° 0 mm 4 m/s 705 mmHg 39%
19:00 +24°C° 0 mm 3 m/s 706 mmHg 45%
20:00 +21°C° 0 mm 2 m/s 706 mmHg 50%
21:00 +19°C° 0 mm 2 m/s 706 mmHg 56%
22:00 +19°C° 0 mm 2 m/s 706 mmHg 58%
23:00 +19°C° 0 mm 1 m/s 706 mmHg 61%
Voir plus

Nous avons besoin de votre consentement

Meteoprog et ses fournisseurs de services peuvent stocker et accéder à des données personnelles telles que des cookies, des identifiants d'appareils ou d'autres technologies similaires sur votre appareil et traiter ces données pour personnaliser le contenu et les publicités, ainsi que pour fournir des fonctionnalités de médias sociaux et analyser le trafic.

  • Stocker et/ou accéder à des informations sur votre appareil

    Des cookies, des identifiants d'appareils ou d'autres informations peuvent être stockés ou accessibles sur votre appareil aux fins indiquées ci-dessus.

  • Annonces et contenus personnalisés, mesure des annonces et des contenus, connaissance de l'audience et développement de produits

    Les annonces et le contenu peuvent être personnalisés en fonction d'un profil. D'autres données peuvent être ajoutées pour mieux personnaliser les annonces et le contenu. Les performances des publicités et du contenu peuvent être mesurées. Il est possible d'obtenir des informations sur le public qui a vu les publicités et le contenu. Ces données peuvent être utilisées pour développer ou améliorer l'expérience de l'utilisateur, les systèmes et les logiciels.

En cliquant sur "J'accepte", vous autorisez l'utilisation de cookies, des identifiants d'appareils, des balises web ou d'autres technologies similaires. Vos paramètres peuvent être modifiés dans le navigateur de votre appareil.

Dans certains cas, des intérêts légitimes peuvent être invoqués plutôt qu'un consentement. Vous pouvez en savoir plus à ce sujet dans notre Politique de confidentialité et de cookies.